Regional Weather Roundup
Issued by NWS

Home | Current Version | Previous Version | Graphics & Text | Print | Product List | Glossary On
Versions: 1 2 3 4 5 6 7 8 9 10 11 12 13 14 15 16 17 18 19 20 21 22 23 24 25 26 27 28 29 30 31 32 33 34 35 36 37 38 39 40 41 42 43 44 45 46 47 48 49 50
000
ASUS43 KTOP 280859
RWRKS

WEATHER ROUNDUP FOR KANSAS
NATIONAL WEATHER SERVICE GOODLAND KS
400 AM CDT TUE JUL 28 2015

NOTE:  "FAIR" INDICATES FEW OR NO CLOUDS BELOW 12,000 FEET WITH NO
SIGNIFICANT WEATHER AND/OR OBSTRUCTIONS TO VISIBILITY.

KSZ001>006-013>018-027>032-041>047-281000-
NORTHWEST KANSAS

CITY           SKY/WX    TMP DP  RH WIND       PRES   REMARKS
GOODLAND       PTCLDY    74  64  71 W12       29.85R
HAYS           CLEAR     79  63  57 S13       29.81S
HILL CITY      CLEAR     81  68  64 S17G24    29.77F
RUSSELL        CLEAR     81  65  58 S20G30    29.79F
$$

KSZ061>065-074>080-084>089-281000-
SOUTHWEST KANSAS

CITY           SKY/WX    TMP DP  RH WIND       PRES   REMARKS
DODGE CITY     CLEAR     77  63  61 S15       29.86F
ELKHART          N/A     75  60  59 S13         N/A
GARDEN CITY    CLEAR     77  65  66 S16       29.85F
GREAT BEND     CLEAR     81  63  54 S20G26    29.82S
LIBERAL        CLEAR     79  63  57 S17       29.88F
$$

KSZ066>073-081>083-090>101-281000-
SOUTHEAST KANSAS

CITY           SKY/WX    TMP DP  RH WIND       PRES   REMARKS
CHANUTE        CLEAR     79  76  90 S8        29.88S
COFFEYVILLE    CLEAR     80  77  90 S8        29.88S
HUTCHINSON     CLEAR     81  67  62 S13       29.86S
NEWTON         CLEAR     81  66  61 S16       29.89F
PARSONS        CLEAR     80  77  90 S6        29.89S
WICHITA INTL   CLEAR     79  70  74 S10       29.86F
WICHITA JABRA  CLEAR     80  71  74 S10       29.88R
WINFIELD       CLEAR     80  71  74 S10       29.89R
$$

KSZ007>012-019>026-033>040-048>060-102>105-281000-
NORTHEAST KANSAS

CITY           SKY/WX    TMP DP  RH WIND       PRES   REMARKS
CONCORDIA      CLEAR     80  67  64 S15G25    29.80S
EMPORIA        CLEAR     77  73  87 S13       29.86F
LAWRENCE       CLEAR     77  73  87 SE7       29.86S
MANHATTAN      CLEAR     81  72  74 SW9       29.83S
OLATHE IND     CLEAR     78  74  87 S8        29.89S
OLATHE EXE     CLEAR     78  73  84 S6        29.88F
SALINA         CLEAR     81  68  64 S12       29.82R
TOPEKA BILLARD CLEAR     80  74  81 VRB5      29.85S
TOPEKA FORBES  CLEAR     79  73  82 S7        29.86S
$$


USA.gov is the U.S. government's official web portal to all federal, state and local government web resources and services.